Location: Lake Arresoe
(56.0000°N, 12.5000°E)
Time: 15:43:22
(UTC+02:00)

Resurs 1-4 Rocket - Pass Details

Date: 29 July 2021
Orbit: 799 x 814 km, 98.6° (Epoch: 27 September)

Event Time Altitude Azimuth Distance (km) Brightness Sun altitude
Rises 03:48:29 0° 14° (NNE) 3,352 6.8 -8.7°
Reaches altitude 10° 03:50:53 10° 9° (N) 2,414 5.7 -8.5°
Maximum altitude 03:56:01 49° 296° (WNW) 1,036 2.6 -8.1°
Drops below altitude 10° 04:01:06 10° 223° (SW) 2,390 3.9 -7.6°
Enters shadow 04:01:15 - 222° (SW) 2,450 3.9 -7.6°
